Погода в Варламово

Россия / Челябинская область     54°37′26″N   60°40′15″E
темп.,
°C
ветер,
м/с
пор.,
м/с
влажн.,
%
обл.,
%
осадки,
мм/ч
давл.,
гПа
погр.,
м
13 мая, чт
чт1323:00+17зсз22445 0.0 102612
02:00+15в11536 0.0 102711
05:00+13ссв11625 0.0 102710
08:00+19ссз115032 0.0 1027177
11:00+24ссз23375 0.0 10261200
14:00+27сз343166 0.0 10252384
17:00+27ссз342866 0.0 10242631
20:00+23всв22435 0.0 102511
14 мая, пт
пт1423:00+18с114721 0.0 102611
02:00+17сз1153100 0.0 102611
05:00+15з115714 0.0 102711
08:00+21юз22455 0.0 1027195
11:00+26ююз34341 0.0 10271154
14:00+28зюз34261 0.0 10252748
17:00+29юз34245 0.0 10242999
20:00+23юз33384 0.0 102433
15 мая, сб
сб1523:00+20сз333948 0.0 102547
02:00+17сз33502 0.0 102532
05:00+16сз23595 0.0 102519
08:00+22зсз22477 0.0 1025198
11:00+26з3334100 0.0 10241256
14:00+29з33255 0.0 10232277
17:00+29зюз23235 0.0 10222509
20:00+21св4755100 1.7 1022152
16 мая, вс
вс1623:00+19зсз22655 4.1 102318
02:00+17зсз34635 0.0 102237
05:00+16зсз33665 0.0 102328
08:00+22сз23515 0.0 1023185
11:00+27з22335 0.0 10221253
14:00+29зюз22265 0.0 10212306
17:00+29зюз23247 0.0 10203026
20:00+24сз454285 0.0 1020109
17 мая, пн
пн1723:00+21сз234743 0.0 102060
02:00+18зсз33504 0.0 102022
05:00+18зсз33545 0.0 102020
08:00+23зсз23440 0.0 1020158
11:00+28зсз34292 0.0 10192598
14:00+29зсз462640 0.0 10183426
17:00+29сз662940 0.0 10162394
20:00+23ссз8134427 0.0 1017401